This is the latest recevied weather packets stored in our database for station/object XE2KK-10. If no packets are shown the sender has not sent any weather packets the latest 10 day(s).
| Time | Temp. | Humidity | Pressure | Rain* | Wind** | Luminosity | Snow |
|---|---|---|---|---|---|---|---|
| 1778028853 | 36.11° C | 28% | 1003.7 hPa | 0 mm | - | 18 W/m² | - |
| 1778028552 | 36.11° C | 28% | 1003.7 hPa | 0 mm | - | 21 W/m² | - |
| 1778028252 | 36.11° C | 28% | 1003.6 hPa | 0 mm | - | 23 W/m² | - |
| 1778027953 | 36.67° C | 28% | 1003.5 hPa | 0 mm | - | 29 W/m² | - |
| 1778027653 | 37.22° C | 26% | 1003.5 hPa | 0 mm | - | 37 W/m² | - |
| 1778027353 | 37.22° C | 26% | 1003.3 hPa | 0 mm | - | 48 W/m² | - |
| 1778027053 | 37.22° C | 26% | 1003.2 hPa | 0 mm | - | 58 W/m² | - |
| 1778026752 | 37.78° C | 25% | 1003.4 hPa | 0 mm | - | 69 W/m² | - |
| 1778026452 | 38.33° C | 23% | 1003.2 hPa | 0 mm | - | 81 W/m² | - |
| 1778026153 | 38.33° C | 23% | 1003.3 hPa | 0 mm | - | 84 W/m² | - |
| 1778025853 | 38.33° C | 23% | 1003.2 hPa | 0 mm | - | 92 W/m² | - |
| 1778025553 | 38.33° C | 23% | 1003.1 hPa | 0 mm | - | 94 W/m² | - |
| 1778025253 | 38.89° C | 22% | 1003.2 hPa | 0 mm | - | 98 W/m² | - |
| 1778024952 | 40° C | 18% | 1003.2 hPa | 0 mm | - | 105 W/m² | - |
| 1778024652 | 40° C | 15% | 1003.1 hPa | 0 mm | - | 97 W/m² | - |
| 1778024353 | 40° C | 15% | 1003.1 hPa | 0 mm | - | 150 W/m² | - |
| 1778024053 | 39.44° C | 15% | 1003.2 hPa | 0 mm | - | 151 W/m² | - |
| 1778023753 | 40° C | 16% | 1003 hPa | 0 mm | - | 133 W/m² | - |
| 1778023453 | 40° C | 15% | 1003.1 hPa | 0 mm | - | 113 W/m² | - |
| 1778023152 | 40° C | 15% | 1003.2 hPa | 0 mm | - | 165 W/m² | - |
| 1778022852 | 40° C | 15% | 1003 hPa | 0 mm | - | 223 W/m² | - |
| 1778022553 | 40° C | 16% | 1003.2 hPa | 0 mm | - | 220 W/m² | - |
| 1778022253 | 40.56° C | 15% | 1003.3 hPa | 0 mm | - | 378 W/m² | - |
| 1778021953 | 40° C | 15% | 1003.2 hPa | 0 mm | - | 314 W/m² | - |
| 1778021653 | 40° C | 16% | 1003.1 hPa | 0 mm | - | 269 W/m² | - |
* Rain latest hour (hover to see other rain measurements)
** Current wind speed in m/s (hover to see current wind gust speed)